This is the latest recevied weather packets stored in our database for station/object DL1DH-17. If no packets are shown the sender has not sent any weather packets the latest 10 day(s).
| Time | Temp. | Humidity | Pressure | Rain* | Wind** | Luminosity | Snow |
|---|---|---|---|---|---|---|---|
| 1778328947 | 16.67° C | 57% | 978.2 hPa | - | - | - | - |
| 1778328107 | 15.56° C | 58% | 978.4 hPa | - | - | - | - |
| 1778327265 | 16.11° C | 57% | 978.5 hPa | - | - | - | - |
| 1778326425 | 15.56° C | 60% | 978.7 hPa | - | - | - | - |
| 1778325585 | 15° C | 61% | 978.9 hPa | - | - | - | - |
| 1778324745 | 15° C | 60% | 979 hPa | - | - | - | - |
| 1778323905 | 15° C | 61% | 979.2 hPa | - | - | - | - |
| 1778323065 | 15° C | 62% | 979.3 hPa | - | - | - | - |
| 1778322224 | 14.44° C | 63% | 979.3 hPa | - | - | - | - |
| 1778321384 | 14.44° C | 65% | 979.3 hPa | - | - | - | - |
| 1778320544 | 13.89° C | 66% | 979.4 hPa | - | - | - | - |
| 1778319704 | 13.33° C | 68% | 979.5 hPa | - | - | - | - |
| 1778318864 | 13.33° C | 68% | 979.6 hPa | - | - | - | - |
| 1778318024 | 12.78° C | 72% | 979.6 hPa | - | - | - | - |
| 1778317184 | 12.22° C | 73% | 979.8 hPa | - | - | - | - |
| 1778316344 | 11.67° C | 74% | 979.8 hPa | - | - | - | - |
| 1778315504 | 11.67° C | 75% | 979.8 hPa | - | - | - | - |
| 1778314664 | 11.11° C | 76% | 979.9 hPa | - | - | - | - |
| 1778313824 | 10.56° C | 77% | 980 hPa | - | - | - | - |
| 1778312983 | 10.56° C | 77% | 980.1 hPa | - | - | - | - |
| 1778312143 | 10° C | 78% | 980.1 hPa | - | - | - | - |
| 1778311303 | 10.56° C | 78% | 980.1 hPa | - | - | - | - |
| 1778310463 | 10° C | 81% | 980 hPa | - | - | - | - |
| 1778309623 | 8.89° C | 81% | 980 hPa | - | - | - | - |
| 1778308903 | 8.89° C | 81% | 980.1 hPa | - | - | - | - |
* Rain since midnight (hover to see other rain measurements)
** Current wind speed in m/s (hover to see current wind gust speed)